Site Name: ,Block Island,,,,,
Site Location: ,"Block Island, Rhode Island",,,,,
Site Latitude and Longitude: , 41o11'N  071o35'W ,,,,,
Type of Data Collected: ,wind speed at 3 levels,,,,,
Time Period: ,1-Jan-79, to ,31-Dec-79,,,
Time Step of Data: ,hourly,,,,,
Original Data Sample Rate: ,unknown,Hz,,,,
Data Collection By:,DOE,,,,,
Sensor 1: ,Anemometer ,9 m, Units:,m/s,,
Sensor 2:,Anemometer ,30 m, Units:,m/s,,
Sensor 3:,Anemometer ,45 m, Units:,m/s,,
Data Logger:  ,unknown,,,,,
Calibration Information: ,unknown,0.37,,,,
Source/Date for Reformatting: ,SDW,1/3/2002,,,,
Comments:,Bad data marker:, -999 , average sensor 3: , 7.02 ,,
date (YYYY-MM-DD),time,9 m,30 m,45 m,,
1979-01-01,0:00,5.78,-999,9.62
1979-01-01,1:00,6.67,-999,11.12
1979-01-01,2:00,5.75,-999,10.04
1979-01-01,3:00,5.92,-999,9.66
1979-01-01,4:00,6.39,-999,10.36
1979-01-01,5:00,5.54,-999,10.14
1979-01-01,6:00,6,-999,10.96
1979-01-01,7:00,6.34,-999,11.56
1979-01-01,8:00,6.01,-999,11.15
1979-01-01,9:00,7.42,-999,12.38
1979-01-01,10:00,6.85,-999,10.83
1979-01-01,11:00,5.31,-999,9.33
1979-01-01,12:00,6.47,-999,10.59
1979-01-01,13:00,6.55,-999,10.47
1979-01-01,14:00,7.35,-999,11.19
1979-01-01,15:00,6.98,-999,11.51
1979-01-01,16:00,6.33,-999,11.56
1979-01-01,17:00,5.41,-999,11.18
1979-01-01,18:00,5.82,-999,10.94
1979-01-01,19:00,5.61,-999,11.52
1979-01-01,20:00,6.39,-999,12
1979-01-01,21:00,7.35,-999,13.11
1979-01-01,22:00,6.83,-999,12.89
1979-01-01,23:00,6.73,-999,12.62
1979-01-02,0:00,7.87,-999,13.13
1979-01-02,1:00,7.72,-999,13.87
1979-01-02,2:00,7.37,-999,12.62
1979-01-02,3:00,6.29,-999,12.4
1979-01-02,4:00,6.47,-999,11.96
1979-01-02,5:00,7.89,-999,13.45
1979-01-02,6:00,8.19,-999,14.05
1979-01-02,7:00,7.94,-999,13.32
1979-01-02,8:00,7.77,-999,14.06
1979-01-02,9:00,7.74,-999,13.17
1979-01-02,10:00,7.67,-999,14.17
1979-01-02,11:00,6.62,-999,11.57
1979-01-02,12:00,6.33,-999,10.33
1979-01-02,13:00,4.75,-999,8.71
1979-01-02,14:00,2.42,-999,5.33
1979-01-02,15:00,3.16,-999,6.78
1979-01-02,16:00,3.43,-999,6.33
1979-01-02,17:00,5.92,-999,9.78
1979-01-02,18:00,6.21,-999,10.39
1979-01-02,19:00,6.3,-999,11.15
1979-01-02,20:00,5.36,-999,10.86
1979-01-02,21:00,6.99,-999,11.84
1979-01-02,22:00,5.75,-999,10.77
1979-01-02,23:00,5.92,-999,12.18
1979-01-03,0:00,6.16,-999,9.41
1979-01-03,1:00,10.5,-999,14.09
1979-01-03,2:00,9.84,-999,13.34
1979-01-03,3:00,8.57,-999,13.12
1979-01-03,4:00,9.64,-999,13.06
1979-01-03,5:00,8.41,-999,11.94
1979-01-03,6:00,9.04,-999,11.86
1979-01-03,7:00,9.96,-999,13.92
1979-01-03,8:00,9,-999,12.25
1979-01-03,9:00,10.39,-999,12.99
1979-01-03,10:00,9.26,-999,11.48
1979-01-03,11:00,9.05,-999,11.08
1979-01-03,12:00,7.8,-999,10.77
1979-01-03,13:00,7.22,-999,9.51
1979-01-03,14:00,7.82,-999,10.08
1979-01-03,15:00,7.1,-999,9.88
1979-01-03,16:00,7.68,-999,10.62
1979-01-03,17:00,7.9,-999,9.86
1979-01-03,18:00,7.75,-999,10.21
1979-01-03,19:00,8.43,-999,11.89
1979-01-03,20:00,8.19,-999,11.07
1979-01-03,21:00,6.27,-999,8.33
1979-01-03,22:00,4.11,-999,6.25
1979-01-03,23:00,4.48,-999,6.24
1979-01-04,0:00,3.97,-999,5.86
1979-01-04,1:00,-999,-999,-999
1979-01-04,2:00,-999,-999,-999
1979-01-04,3:00,-999,-999,-999
1979-01-04,4:00,-999,-999,-999
1979-01-04,5:00,-999,-999,-999
1979-01-04,6:00,-999,-999,-999
1979-01-04,7:00,-999,-999,-999
1979-01-04,8:00,-999,-999,-999
1979-01-04,9:00,-999,-999,-999
1979-01-04,10:00,-999,-999,-999
1979-01-04,11:00,-999,-999,-999
1979-01-04,12:00,-999,-999,-999
1979-01-04,13:00,-999,-999,-999
1979-01-04,14:00,-999,-999,-999
1979-01-04,15:00,-999,-999,-999
1979-01-04,16:00,-999,-999,-999
1979-01-04,17:00,-999,-999,-999
1979-01-04,18:00,-999,-999,-999
1979-01-04,19:00,-999,-999,-999
1979-01-04,20:00,-999,-999,-999
1979-01-04,21:00,-999,-999,-999
1979-01-04,22:00,-999,-999,-999
1979-01-04,23:00,-999,-999,-999
1979-01-05,0:00,-999,-999,-999
1979-01-05,1:00,-999,-999,-999
1979-01-05,2:00,-999,-999,-999
1979-01-05,3:00,-999,-999,-999
1979-01-05,4:00,-999,-999,-999
1979-01-05,5:00,-999,-999,-999
1979-01-05,6:00,-999,-999,-999
1979-01-05,7:00,-999,-999,-999
1979-01-05,8:00,-999,-999,-999
1979-01-05,9:00,-999,-999,-999
1979-01-05,10:00,-999,-999,-999
1979-01-05,11:00,-999,-999,-999
1979-01-05,12:00,-999,-999,-999
1979-01-05,13:00,-999,-999,-999
1979-01-05,14:00,-999,-999,-999
1979-01-05,15:00,-999,-999,-999
1979-01-05,16:00,-999,-999,-999
1979-01-05,17:00,-999,-999,-999
1979-01-05,18:00,-999,-999,-999
1979-01-05,19:00,-999,-999,-999
1979-01-05,20:00,-999,-999,-999
1979-01-05,21:00,-999,-999,-999
1979-01-05,22:00,-999,-999,-999
1979-01-05,23:00,-999,-999,-999
1979-01-06,0:00,-999,-999,-999
1979-01-06,1:00,-999,-999,-999
1979-01-06,2:00,-999,-999,-999
1979-01-06,3:00,-999,-999,-999
1979-01-06,4:00,-999,-999,-999
1979-01-06,5:00,-999,-999,-999
1979-01-06,6:00,-999,-999,-999
1979-01-06,7:00,-999,-999,-999
1979-01-06,8:00,-999,-999,-999
1979-01-06,9:00,6.94,-999,9.54
1979-01-06,10:00,5.59,-999,7.81
1979-01-06,11:00,5.56,-999,7.33
1979-01-06,12:00,5.59,-999,8
1979-01-06,13:00,-999,-999,-999
1979-01-06,14:00,-999,-999,-999
1979-01-06,15:00,-999,-999,-999
1979-01-06,16:00,4.65,-999,3.09
1979-01-06,17:00,3.71,-999,-999
1979-01-06,18:00,2.58,-999,-999
1979-01-06,19:00,2.57,-999,-999
1979-01-06,20:00,1.87,-999,-999
1979-01-06,21:00,1.63,-999,-999
1979-01-06,22:00,1.33,-999,-999
1979-01-06,23:00,1.63,-999,-999
1979-01-07,0:00,1.05,-999,-999
1979-01-07,1:00,1.72,-999,-999
1979-01-07,2:00,1.67,-999,-999
1979-01-07,3:00,2.18,-999,-999
1979-01-07,4:00,1.68,-999,-999
1979-01-07,5:00,0.64,-999,-999
1979-01-07,6:00,0.7,-999,-999
1979-01-07,7:00,1.48,-999,-999
1979-01-07,8:00,0.47,-999,-999
1979-01-07,9:00,0.83,-999,-999
1979-01-07,10:00,1.79,-999,-999
1979-01-07,11:00,3.1,-999,-999
1979-01-07,12:00,4.1,-999,4.8
1979-01-07,13:00,4.98,-999,5.56
1979-01-07,14:00,5.54,-999,6.69
1979-01-07,15:00,6.29,-999,8.01
1979-01-07,16:00,5.11,-999,6.33
1979-01-07,17:00,5.42,-999,6.94
1979-01-07,18:00,5.73,-999,7.86
1979-01-07,19:00,5.58,-999,8.36
1979-01-07,20:00,5.81,-999,8.69
1979-01-07,21:00,5.77,-999,8.36
1979-01-07,22:00,5.84,-999,8.96
1979-01-07,23:00,6.27,-999,10
1979-01-08,0:00,6.86,-999,10.99
1979-01-08,1:00,6.64,-999,12.1
1979-01-08,2:00,7.46,-999,12.47
1979-01-08,3:00,7.82,-999,12.49
1979-01-08,4:00,7.63,-999,12.18
1979-01-08,5:00,6.81,-999,10.91
1979-01-08,6:00,8.23,-999,13.14
1979-01-08,7:00,6.66,-999,11.51
1979-01-08,8:00,5.71,-999,9.88
1979-01-08,9:00,8.59,-999,13.18
1979-01-08,10:00,6.93,-999,11.55
1979-01-08,11:00,5.55,-999,8.36
1979-01-08,12:00,4.76,-999,6.69
1979-01-08,13:00,2.63,-999,3.15
1979-01-08,14:00,2.12,-999,3.16
1979-01-08,15:00,2.84,-999,4.19
1979-01-08,16:00,4.9,-999,6.78
1979-01-08,17:00,4.9,-999,6.12
1979-01-08,18:00,3.86,-999,4.92
1979-01-08,19:00,5.3,-999,6.96
1979-01-08,20:00,5.91,-999,7.52
1979-01-08,21:00,6.26,-999,8.23
1979-01-08,22:00,6.41,-999,8.69
1979-01-08,23:00,7.61,-999,9.42
1979-01-09,0:00,8.4,-999,10.43
1979-01-09,1:00,8.18,-999,10.15
1979-01-09,2:00,7.63,-999,9.04
1979-01-09,3:00,7.58,-999,9.54
1979-01-09,4:00,7.98,-999,10.55
1979-01-09,5:00,7.81,-999,10.12
1979-01-09,6:00,7.87,-999,10.29
1979-01-09,7:00,7.17,-999,9.34
1979-01-09,8:00,5.98,-999,7.52
1979-01-09,9:00,4.71,-999,6.21
1979-01-09,10:00,4.44,-999,5.4
1979-01-09,11:00,4.71,-999,6.03
1979-01-09,12:00,4.77,-999,6.04
1979-01-09,13:00,4.4,-999,5.73
1979-01-09,14:00,4.47,-999,6.71
1979-01-09,15:00,4.2,-999,6.41
1979-01-09,16:00,4.05,-999,7.07
1979-01-09,17:00,3.24,-999,6.11
1979-01-09,18:00,4.09,-999,6.71
1979-01-09,19:00,3.78,-999,6.57
1979-01-09,20:00,3.72,-999,6.86
1979-01-09,21:00,6.41,-999,8.58
1979-01-09,22:00,6.24,-999,8.96
1979-01-09,23:00,6.75,-999,10.5
1979-01-10,0:00,6.4,-999,9.43
1979-01-10,1:00,6.63,-999,9.41
1979-01-10,2:00,4.63,-999,6.82
1979-01-10,3:00,3.91,-999,5.55
1979-01-10,4:00,4.7,-999,6.78
1979-01-10,5:00,5.06,-999,6.25
1979-01-10,6:00,4.15,-999,5.78
1979-01-10,7:00,4.28,-999,5.93
1979-01-10,8:00,4.08,-999,4.95
1979-01-10,9:00,3.15,-999,3.92
1979-01-10,10:00,2.85,-999,3.48
1979-01-10,11:00,3.23,-999,3.96
1979-01-10,12:00,4.36,-999,5.81
1979-01-10,13:00,4.39,-999,6.5
1979-01-10,14:00,4.99,-999,6.92
1979-01-10,15:00,4.49,-999,7.09
1979-01-10,16:00,4.02,-999,7.02
1979-01-10,17:00,4.33,-999,7.7
1979-01-10,18:00,4.99,-999,8.02
1979-01-10,19:00,4.59,-999,7.08
1979-01-10,20:00,6.29,-999,8.56
1979-01-10,21:00,6.32,-999,9.27
1979-01-10,22:00,6.32,-999,8.14
1979-01-10,23:00,5.58,-999,7.37
1979-01-11,0:00,4.8,-999,6.58
1979-01-11,1:00,5.48,-999,6.83
1979-01-11,2:00,6.53,-999,8.08
1979-01-11,3:00,6.64,-999,8.14
1979-01-11,4:00,6.07,-999,8
1979-01-11,5:00,5.95,-999,7.22
1979-01-11,6:00,5.08,-999,6.18
1979-01-11,7:00,5.23,-999,6.58
1979-01-11,8:00,5.34,-999,6.53
1979-01-11,9:00,6.64,-999,7.93
1979-01-11,10:00,5.29,-999,6.34
1979-01-11,11:00,4.63,-999,5.41
1979-01-11,12:00,4.3,-999,5.11
1979-01-11,13:00,3.9,-999,4.73
1979-01-11,14:00,3.52,-999,4.65
1979-01-11,15:00,3.79,-999,4.59
1979-01-11,16:00,3.56,-999,4.87
1979-01-11,17:00,3.84,-999,5.01
1979-01-11,18:00,4.54,-999,5.64
1979-01-11,19:00,4.51,-999,5.84
1979-01-11,20:00,5.04,-999,6.75
1979-01-11,21:00,5.31,-999,7.32
1979-01-11,22:00,5.04,-999,7.44
1979-01-11,23:00,4.72,-999,7.47
1979-01-12,0:00,4.7,-999,7.48
1979-01-12,1:00,3.86,-999,5.71
1979-01-12,2:00,3.34,-999,4.99
1979-01-12,3:00,3.9,-999,5.68
1979-01-12,4:00,3.27,-999,5.02
1979-01-12,5:00,3.54,-999,4.59
1979-01-12,6:00,4.3,-999,5.83
1979-01-12,7:00,4.71,-999,6.38
1979-01-12,8:00,4.56,-999,5.94
1979-01-12,9:00,3.84,-999,5.07
1979-01-12,10:00,3.57,-999,4.55
1979-01-12,11:00,3.1,-999,3.76
1979-01-12,12:00,3.67,-999,4.86
1979-01-12,13:00,3.2,-999,4.32
1979-01-12,14:00,3.84,-999,5.34
1979-01-12,15:00,2.88,-999,4.05
1979-01-12,16:00,3.68,-999,4.88
1979-01-12,17:00,3.9,-999,5.24
1979-01-12,18:00,3.81,-999,5.57
1979-01-12,19:00,4.41,-999,5.82
1979-01-12,20:00,4.66,-999,6.47
1979-01-12,21:00,4.92,-999,7.05
1979-01-12,22:00,4.83,-999,6.69
1979-01-12,23:00,5.17,-999,7.23
1979-01-13,0:00,6.09,-999,8.33
1979-01-13,1:00,5.85,-999,8.19
1979-01-13,2:00,5.67,-999,7.86
1979-01-13,3:00,5.56,-999,8.23
1979-01-13,4:00,5.45,-999,8.39
1979-01-13,5:00,6.24,-999,8.42
1979-01-13,6:00,6.74,-999,9.26
1979-01-13,7:00,6.59,-999,10.02
1979-01-13,8:00,6.96,-999,11.13
1979-01-13,9:00,7.93,-999,11.94
1979-01-13,10:00,8.16,-999,11.79
1979-01-13,11:00,8.14,-999,12.91
1979-01-13,12:00,9.49,-999,13.2
1979-01-13,13:00,10.18,-999,13.67
1979-01-13,14:00,9.81,-999,14.21
1979-01-13,15:00,10.03,-999,14.82
1979-01-13,16:00,9.81,-999,13.49
1979-01-13,17:00,10.34,-999,14.77
1979-01-13,18:00,9.48,-999,12.87
1979-01-13,19:00,7.95,-999,12.54
1979-01-13,20:00,7.61,-999,13.01
1979-01-13,21:00,7.08,-999,11.53
1979-01-13,22:00,5.75,-999,10.02
1979-01-13,23:00,4.77,-999,9.07
1979-01-14,0:00,4.03,-999,7.47
1979-01-14,1:00,4.34,-999,7.84
1979-01-14,2:00,3.59,-999,6.75
1979-01-14,3:00,2.3,-999,3.43
1979-01-14,4:00,1.61,-999,3.21
1979-01-14,5:00,1.58,-999,3.2
1979-01-14,6:00,1.21,-999,2.56
1979-01-14,7:00,1.55,-999,4.49
1979-01-14,8:00,5.67,-999,10.01
1979-01-14,9:00,7.14,-999,10.46
1979-01-14,10:00,6.16,-999,11.07
1979-01-14,11:00,7.72,-999,12.56
1979-01-14,12:00,7.67,-999,12.27
1979-01-14,13:00,7.37,-999,12.02
1979-01-14,14:00,8.11,-999,12.3
1979-01-14,15:00,7.07,-999,11.52
1979-01-14,16:00,6.78,-999,10.41
1979-01-14,17:00,5.75,-999,8.83
1979-01-14,18:00,5.82,-999,9.64
1979-01-14,19:00,6.09,-999,11.18
1979-01-14,20:00,8.2,-999,11.78
1979-01-14,21:00,9.09,-999,12.11
1979-01-14,22:00,10.83,-999,13.75
1979-01-14,23:00,9.98,-999,12.62
1979-01-15,0:00,11.41,-999,15.14
1979-01-15,1:00,9.52,-999,12.65
1979-01-15,2:00,9.68,-999,12.69
1979-01-15,3:00,9.25,-999,12.46
1979-01-15,4:00,10.37,-999,13.56
1979-01-15,5:00,9.22,-999,11.21
1979-01-15,6:00,8.26,-999,11.51
1979-01-15,7:00,8.09,-999,10.94
1979-01-15,8:00,10.06,-999,12.46
1979-01-15,9:00,7.97,-999,10.39
1979-01-15,10:00,6.4,-999,7.61
1979-01-15,11:00,6.47,-999,8.33
1979-01-15,12:00,5.7,-999,7.97
1979-01-15,13:00,6.18,-999,9.58
1979-01-15,14:00,7.45,-999,11.13
1979-01-15,15:00,7.26,-999,10.47
1979-01-15,16:00,7.35,-999,10.16
1979-01-15,17:00,6.6,-999,9.53
1979-01-15,18:00,5.3,-999,8
1979-01-15,19:00,4.49,-999,7.27
1979-01-15,20:00,4.67,-999,7
1979-01-15,21:00,4.98,-999,7.61
1979-01-15,22:00,3.81,-999,6.66
1979-01-15,23:00,4.39,-999,7.91
1979-01-16,0:00,4.72,-999,8.28
1979-01-16,1:00,4.93,-999,8.02
1979-01-16,2:00,4.44,-999,8.03
1979-01-16,3:00,5.06,-999,7.73
1979-01-16,4:00,5.3,-999,7.78
1979-01-16,5:00,3.9,-999,6.85
1979-01-16,6:00,4.05,-999,7.08
1979-01-16,7:00,4.04,-999,6.98
1979-01-16,8:00,4.19,-999,7.13
1979-01-16,9:00,3.93,-999,6.59
1979-01-16,10:00,4.28,-999,6.3
1979-01-16,11:00,3.98,-999,5.66
1979-01-16,12:00,4.22,-999,6.19
1979-01-16,13:00,5.35,-999,7.25
1979-01-16,14:00,6.26,-999,8.3
1979-01-16,15:00,5.49,-999,7.54
1979-01-16,16:00,6.47,-999,8.29
1979-01-16,17:00,6.05,-999,8.2
1979-01-16,18:00,5.85,-999,8.47
1979-01-16,19:00,6.09,-999,8.4
1979-01-16,20:00,5.42,-999,7.27
1979-01-16,21:00,5.9,-999,7.64
1979-01-16,22:00,6.89,-999,8.59
1979-01-16,23:00,5.41,-999,7.57
1979-01-17,0:00,4.37,-999,5.85
1979-01-17,1:00,3.91,-999,5.49
1979-01-17,2:00,4.02,-999,6.18
1979-01-17,3:00,3.24,-999,5.38
1979-01-17,4:00,3.05,-999,5.38
1979-01-17,5:00,2.99,-999,4.26
1979-01-17,6:00,3.04,-999,4.48
1979-01-17,7:00,4.1,-999,5.22
1979-01-17,8:00,3.49,-999,4.34
1979-01-17,9:00,3.38,-999,4.25
1979-01-17,10:00,4.98,-999,6.51
1979-01-17,11:00,4.05,-999,5.72
1979-01-17,12:00,4.26,-999,5.56
1979-01-17,13:00,4.15,-999,6.22
1979-01-17,14:00,4.56,-999,6.92
1979-01-17,15:00,2.78,-999,5.09
1979-01-17,16:00,2.79,-999,5.72
1979-01-17,17:00,3.19,-999,5.6
1979-01-17,18:00,3.17,-999,6.19
1979-01-17,19:00,3.53,-999,6.49
1979-01-17,20:00,4.96,-999,9.36
1979-01-17,21:00,5.66,-999,8.71
1979-01-17,22:00,6.18,-999,9.38
1979-01-17,23:00,7.05,-999,10.29
1979-01-18,0:00,7.65,-999,10.56
1979-01-18,1:00,5.18,-999,7.94
1979-01-18,2:00,3.88,-999,6.18
1979-01-18,3:00,3.39,-999,5.05
1979-01-18,4:00,3.4,-999,4.98
1979-01-18,5:00,5.4,-999,6.84
1979-01-18,6:00,8.09,-999,9.65
1979-01-18,7:00,8.97,-999,11.22
1979-01-18,8:00,9.7,-999,12.14
1979-01-18,9:00,10.71,-999,13.43
1979-01-18,10:00,11.26,-999,14.27
1979-01-18,11:00,10.48,-999,13.18
1979-01-18,12:00,11.15,-999,12.95
1979-01-18,13:00,10.74,-999,13.61
1979-01-18,14:00,12.12,-999,15.43
1979-01-18,15:00,12.87,-999,15.95
1979-01-18,16:00,13.71,-999,17.01
1979-01-18,17:00,12.24,-999,15.14
1979-01-18,18:00,11.52,-999,14
1979-01-18,19:00,11.39,-999,14.24
1979-01-18,20:00,10.88,-999,14.26
1979-01-18,21:00,10.25,-999,13.45
1979-01-18,22:00,10.16,-999,13.76
1979-01-18,23:00,8.73,-999,12.4
1979-01-19,0:00,9.33,-999,12.71
1979-01-19,1:00,7.66,-999,9.28
1979-01-19,2:00,7.21,-999,9.73
1979-01-19,3:00,7.69,-999,9.84
1979-01-19,4:00,9.87,-999,12.62
1979-01-19,5:00,8.99,-999,11.32
1979-01-19,6:00,7.83,-999,10.85
1979-01-19,7:00,6.91,-999,9.56
1979-01-19,8:00,5.99,-999,8.35
1979-01-19,9:00,5.19,-999,6.86
1979-01-19,10:00,4.84,-999,6.27
1979-01-19,11:00,4,-999,4.94
1979-01-19,12:00,4.1,-999,4.81
1979-01-19,13:00,3.15,-999,2.95
1979-01-19,14:00,2.73,-999,3.11
1979-01-19,15:00,4.03,-999,5.04
1979-01-19,16:00,4.12,-999,5.86
1979-01-19,17:00,4.75,-999,6.31
1979-01-19,18:00,4.55,-999,5.15
1979-01-19,19:00,4.12,-999,5.49
1979-01-19,20:00,4.5,-999,5.52
1979-01-19,21:00,3.8,-999,5.05
1979-01-19,22:00,3.21,-999,4.76
1979-01-19,23:00,2.16,-999,3.59
1979-01-20,0:00,2.4,-999,3.64
1979-01-20,1:00,2.29,-999,3.39
1979-01-20,2:00,1.94,-999,2.69
1979-01-20,3:00,1.77,-999,2.37
1979-01-20,4:00,1.08,-999,1.88
1979-01-20,5:00,1.06,-999,1.61
1979-01-20,6:00,1.27,-999,1.95
1979-01-20,7:00,1.69,-999,2.3
1979-01-20,8:00,1.09,-999,1.7
1979-01-20,9:00,2.01,-999,2.36
1979-01-20,10:00,1.85,-999,2.27
1979-01-20,11:00,1.75,-999,1.97
1979-01-20,12:00,1.53,-999,1.72
1979-01-20,13:00,1.75,-999,2
1979-01-20,14:00,0.98,-999,1.07
1979-01-20,15:00,0.83,-999,1.33
1979-01-20,16:00,1.47,-999,2.29
1979-01-20,17:00,1.34,-999,2.35
1979-01-20,18:00,2.03,-999,3.7
1979-01-20,19:00,4.03,-999,5.89
1979-01-20,20:00,5.62,-999,8.16
1979-01-20,21:00,6.24,-999,9.14
1979-01-20,22:00,7.27,-999,10.32
1979-01-20,23:00,8.4,-999,12.15
1979-01-21,0:00,9.19,-999,12.37
1979-01-21,1:00,9.82,-999,13.37
1979-01-21,2:00,9.1,-999,12.24
1979-01-21,3:00,6.88,-999,9.87
1979-01-21,4:00,7.05,-999,9.93
1979-01-21,5:00,6.51,-999,9.99
1979-01-21,6:00,6.17,-999,9.97
1979-01-21,7:00,7.99,-999,11.26
1979-01-21,8:00,9.45,-999,14.73
1979-01-21,9:00,9.3,-999,14.2
1979-01-21,10:00,9.28,-999,12.78
1979-01-21,11:00,8.94,-999,14.3
1979-01-21,12:00,10.1,-999,15.91
1979-01-21,13:00,8.23,-999,13.82
1979-01-21,14:00,6.74,-999,11.16
1979-01-21,15:00,7.88,-999,13.99
1979-01-21,16:00,8.4,-999,14.51
1979-01-21,17:00,8.45,-999,14.41
1979-01-21,18:00,7.74,-999,12.21
1979-01-21,19:00,6.24,-999,9.94
1979-01-21,20:00,5.47,-999,8.83
1979-01-21,21:00,7.09,-999,11.64
1979-01-21,22:00,7.07,-999,11.91
1979-01-21,23:00,6.12,-999,10.11
1979-01-22,0:00,6.64,-999,11.17
1979-01-22,1:00,6.46,-999,9.93
1979-01-22,2:00,7.56,-999,11.58
1979-01-22,3:00,8.27,-999,11.5
1979-01-22,4:00,7.44,-999,11.22
1979-01-22,5:00,7.42,-999,10.23
1979-01-22,6:00,7.38,-999,10.48
1979-01-22,7:00,7.87,-999,11.46
1979-01-22,8:00,7.83,-999,11.93
1979-01-22,9:00,8.18,-999,11.85
1979-01-22,10:00,8.07,-999,11.48
1979-01-22,11:00,9.1,-999,12.54
1979-01-22,12:00,7.67,-999,11.49
1979-01-22,13:00,8.44,-999,11.63
1979-01-22,14:00,8.16,-999,11.87
1979-01-22,15:00,8.43,-999,11.39
1979-01-22,16:00,8.24,-999,12.45
1979-01-22,17:00,7.99,-999,11.24
1979-01-22,18:00,8.62,-999,12.59
1979-01-22,19:00,9.17,-999,13.39
1979-01-22,20:00,9.48,-999,12.88
1979-01-22,21:00,8.34,-999,12.16
1979-01-22,22:00,7.32,-999,11.57
1979-01-22,23:00,7.38,-999,11.13
1979-01-23,0:00,6.69,-999,10.34
1979-01-23,1:00,6.3,-999,9.55
1979-01-23,2:00,7.1,-999,10.03
1979-01-23,3:00,7.23,-999,10.43
1979-01-23,4:00,6.85,-999,9.65
1979-01-23,5:00,6.6,-999,8.87
1979-01-23,6:00,6.08,-999,8.35
1979-01-23,7:00,5.33,-999,6.52
1979-01-23,8:00,4.69,-999,5.71
1979-01-23,9:00,3.85,-999,4.54
1979-01-23,10:00,4.29,-999,4.92
1979-01-23,11:00,4.56,-999,5.34
1979-01-23,12:00,3.81,-999,5.26
1979-01-23,13:00,3.76,-999,5.06
1979-01-23,14:00,3.57,-999,5.01
1979-01-23,15:00,2.92,-999,4.63
1979-01-23,16:00,2.05,-999,4.18
1979-01-23,17:00,2.1,-999,4.67
1979-01-23,18:00,1.58,-999,4.19
1979-01-23,19:00,1.94,-999,4.84
1979-01-23,20:00,1.52,-999,3.88
1979-01-23,21:00,1.05,-999,3.67
1979-01-23,22:00,1.28,-999,2.29
1979-01-23,23:00,0.76,-999,0.72
1979-01-24,0:00,0.55,-999,2.44
1979-01-24,1:00,0.95,-999,3.23
1979-01-24,2:00,1.94,-999,3.78
1979-01-24,3:00,3.06,-999,5.41
1979-01-24,4:00,3.67,-999,5.39
1979-01-24,5:00,3.01,-999,4.88
1979-01-24,6:00,4.4,-999,7.36
1979-01-24,7:00,5.89,-999,8.74
1979-01-24,8:00,5.87,-999,9.42
1979-01-24,9:00,5.59,-999,8.91
1979-01-24,10:00,6.39,-999,10.37
1979-01-24,11:00,7.23,-999,11.54
1979-01-24,12:00,6.93,-999,10.89
1979-01-24,13:00,7.11,-999,11.56
1979-01-24,14:00,7.32,-999,11.39
1979-01-24,15:00,8.3,-999,12.83
1979-01-24,16:00,8.77,-999,13.68
1979-01-24,17:00,9.26,-999,13.15
1979-01-24,18:00,9.8,-999,15.17
1979-01-24,19:00,10.11,-999,14.67
1979-01-24,20:00,10.34,-999,15.98
1979-01-24,21:00,10.68,-999,17.22
1979-01-24,22:00,12.9,-999,18.19
1979-01-24,23:00,13.23,-999,18.35
1979-01-25,0:00,13.31,-999,18.27
1979-01-25,1:00,14.64,-999,21.52
1979-01-25,2:00,12.58,-999,18.13
1979-01-25,3:00,7.74,-999,11.71
1979-01-25,4:00,7,-999,10.39
1979-01-25,5:00,4.48,-999,7.39
1979-01-25,6:00,2.19,-999,4.89
1979-01-25,7:00,2.56,-999,4.74
1979-01-25,8:00,4.49,-999,7.28
1979-01-25,9:00,5.22,-999,8.35
1979-01-25,10:00,4.04,-999,6.48
1979-01-25,11:00,4.8,-999,7.51
1979-01-25,12:00,4.32,-999,6.87
1979-01-25,13:00,5.37,-999,8.61
1979-01-25,14:00,6.4,-999,9.39
1979-01-25,15:00,6.54,-999,10.51
1979-01-25,16:00,6,-999,10.24
1979-01-25,17:00,6.1,-999,10.23
1979-01-25,18:00,5.84,-999,10.17
1979-01-25,19:00,5.29,-999,9.45
1979-01-25,20:00,4.36,-999,7.97
1979-01-25,21:00,4.03,-999,7.01
1979-01-25,22:00,3.7,-999,5.56
1979-01-25,23:00,2.8,-999,5.57
1979-01-26,0:00,3.39,-999,4.86
1979-01-26,1:00,2.79,-999,4.11
1979-01-26,2:00,2.09,-999,3.36
1979-01-26,3:00,1.34,-999,2.26
1979-01-26,4:00,3.39,-999,4.92
1979-01-26,5:00,4.14,-999,5.95
1979-01-26,6:00,4.43,-999,6.84
1979-01-26,7:00,4.87,-999,6.93
1979-01-26,8:00,5.53,-999,7.91
1979-01-26,9:00,5.64,-999,7.81
1979-01-26,10:00,4.8,-999,6.96
1979-01-26,11:00,4.01,-999,6.31
1979-01-26,12:00,4.18,-999,5.57
1979-01-26,13:00,4.71,-999,5.85
1979-01-26,14:00,5.02,-999,6.8
1979-01-26,15:00,5.52,-999,7.18
1979-01-26,16:00,5.67,-999,7.25
1979-01-26,17:00,-999,-999,-999
1979-01-26,18:00,-999,-999,-999
1979-01-26,19:00,-999,-999,-999
1979-01-26,20:00,-999,-999,-999
1979-01-26,21:00,-999,-999,-999
1979-01-26,22:00,-999,-999,-999
1979-01-26,23:00,-999,-999,-999
1979-01-27,0:00,-999,-999,-999
1979-01-27,1:00,-999,-999,-999
1979-01-27,2:00,-999,-999,-999
1979-01-27,3:00,-999,-999,-999
1979-01-27,4:00,-999,-999,-999
1979-01-27,5:00,-999,-999,-999
1979-01-27,6:00,-999,-999,-999
1979-01-27,7:00,-999,-999,-999
1979-01-27,8:00,-999,-999,-999
1979-01-27,9:00,-999,-999,-999
1979-01-27,10:00,-999,-999,-999
1979-01-27,11:00,-999,-999,-999
1979-01-27,12:00,-999,-999,-999
1979-01-27,13:00,-999,-999,-999
1979-01-27,14:00,-999,-999,-999
1979-01-27,15:00,-999,-999,-999
1979-01-27,16:00,-999,-999,-999
1979-01-27,17:00,-999,-999,-999
1979-01-27,18:00,-999,-999,-999
1979-01-27,19:00,-999,-999,-999
1979-01-27,20:00,-999,-999,-999
1979-01-27,21:00,-999,-999,-999
1979-01-27,22:00,-999,-999,-999
1979-01-27,23:00,-999,-999,-999
1979-01-28,0:00,-999,-999,-999
1979-01-28,1:00,-999,-999,-999
1979-01-28,2:00,-999,-999,-999
1979-01-28,3:00,-999,-999,-999
1979-01-28,4:00,-999,-999,-999
1979-01-28,5:00,-999,-999,-999
1979-01-28,6:00,-999,-999,-999
1979-01-28,7:00,-999,-999,-999
1979-01-28,8:00,-999,-999,-999
1979-01-28,9:00,-999,-999,-999
1979-01-28,10:00,-999,-999,-999
1979-01-28,11:00,-999,-999,-999
1979-01-28,12:00,-999,-999,-999
1979-01-28,13:00,-999,-999,-999
1979-01-28,14:00,-999,-999,-999
1979-01-28,15:00,-999,-999,-999
1979-01-28,16:00,-999,-999,-999
1979-01-28,17:00,-999,-999,-999
1979-01-28,18:00,-999,-999,-999
1979-01-28,19:00,-999,-999,-999
1979-01-28,20:00,-999,-999,-999
1979-01-28,21:00,-999,-999,-999
1979-01-28,22:00,-999,-999,-999
1979-01-28,23:00,-999,-999,-999
1979-01-29,0:00,-999,-999,-999
1979-01-29,1:00,-999,-999,-999
1979-01-29,2:00,-999,-999,-999
1979-01-29,3:00,-999,-999,-999
1979-01-29,4:00,-999,-999,-999
1979-01-29,5:00,-999,-999,-999
1979-01-29,6:00,-999,-999,-999
1979-01-29,7:00,-999,-999,-999
1979-01-29,8:00,-999,-999,-999
1979-01-29,9:00,-999,-999,-999
1979-01-29,10:00,-999,-999,-999
1979-01-29,11:00,-999,-999,-999
1979-01-29,12:00,-999,-999,-999
1979-01-29,13:00,-999,-999,-999
1979-01-29,14:00,-999,-999,-999
1979-01-29,15:00,-999,-999,-999
1979-01-29,16:00,-999,-999,-999
1979-01-29,17:00,-999,-999,-999
1979-01-29,18:00,-999,-999,-999
1979-01-29,19:00,-999,-999,-999
1979-01-29,20:00,-999,-999,-999
1979-01-29,21:00,-999,-999,-999
1979-01-29,22:00,-999,-999,-999
1979-01-29,23:00,-999,-999,-999
1979-01-30,0:00,-999,-999,-999
1979-01-30,1:00,-999,-999,-999
1979-01-30,2:00,-999,-999,-999
1979-01-30,3:00,-999,-999,-999
1979-01-30,4:00,-999,-999,-999
1979-01-30,5:00,-999,-999,-999
1979-01-30,6:00,-999,-999,-999
1979-01-30,7:00,-999,-999,-999
1979-01-30,8:00,-999,-999,-999
1979-01-30,9:00,-999,-999,-999
1979-01-30,10:00,-999,-999,-999
1979-01-30,11:00,-999,-999,-999
1979-01-30,12:00,-999,-999,-999
1979-01-30,13:00,-999,-999,-999
1979-01-30,14:00,-999,-999,-999